www.pogodaiklimat.ru

Погода и климат >> Архив погоды >> Корея >> Санджу


ПОГОДА в Санджу

  • Прогноз погоды в Санджу
  • Монитор погоды в Санджу

АРХИВ ПОГОДЫ в Санджу

Время (UTC), дата Ветер
(напр.,м/с)
 
Видим.   Явления Облачность Т
(С)
Тd
(С)
f
(%)
Тe
(С)
Тes
(С)
Комфортность P
(гПа)
Po
(гПа)
Тmin
(С)
Tmax
(С)
R
(мм)
R24
(мм)
S
(см)
18 18.08 Ю 1 17 км 6/6 1500 м
[]
+20.2 +19.5 96 +25 +25 комфорт 1009.4 998.2
21 18.08 17 км н/о +19.1 +18.4 96 +21 +21 комфорт 1010.4 999.2
00 19.08 В 1 22 км 8/0
[]
+23.5 +19.4 78 +29 +34 душно 1010.2 999.2 +19.0
03 19.08 В 1 16 км 9/8 600 м
[]
+28.4 +22.3 70 +37 +40 очень
душно
1009.9 999.1
06 19.08 С 1 16 км 8/8 1000 м
[]
+29.3 +22.0 65 +38 +43 очень
душно
1008.6 997.8
09 19.08 В 1 24 км 6/0
[]
+28.7 +22.2 68 +37 +38 очень
душно
1008.5 997.7
12 19.08 С 1 18 км 6/6 600 м
[]
+25.7 +22.1 81 +33 +33 очень
душно
1010.0 999.0 +30.2
15 19.08 30 км н/о +24.7 +21.0 80 +31 +31 очень
душно
1011.1 1000.2
18 19.08 35 км 8/8 600 м
[]
+23.5 +19.8 80 1011.0 1000.0
21 19.08 СЗ 1 28 км 6/4 1000 м
[]
+22.0 +19.1 84 +27 +27 душно 1011.9 1000.8
00 20.08 С 1 25 км 6/6 1000 м
[]
+24.8 +20.0 75 +30 +33 душно 1011.7 1000.7 +21.8
03 20.08 27 км н/о +27.7 +20.7 66 +35 +38 очень
душно
1011.2 1000.3
06 20.08 ЮВ 1 25 км 6/6 1000 м
[]
+29.2 +21.4 63 +37 +44 очень
душно
1009.5 998.7
09 20.08 Ю 1 26 км 5/4 1000 м
[]
+29.1 +21.0 62 +37 +37 очень
душно
1009.0 998.2
12 20.08 С 1 21 км 6/6 1500 м
[]
+25.7 +17.8 62 +30 +30 душно 1011.0 1000.0 +30.5
15 20.08 СВ 1 22 км 5/0
[]
+23.2 +18.0 73 +29 +29 душно 1010.7 999.7
18 20.08 21 км 8/0 2000 м
[]
+22.1 +19.2 84 +28 +28 душно 1010.4 999.3
21 20.08 штиль 0 16 км 8/5 600 м
[]
+20.7 +19.5 93 +25 +25 комфорт 1010.1 998.9
00 21.08 16 км 9/9 600 м
[]
+24.3 +20.4 79 1010.6 999.7 +20.6
03 21.08 В 1 15 км 6/5 600 м
[]
+29.0 +22.4 68 +38 +48 очень
душно
1009.5 998.7
06 21.08 Ю 1 13 км 8/0 2000 м
[]
+30.8 +23.4 65 +42 +50 опасность
перегрева
1007.5 996.8
09 21.08 17 км н/о +28.3 +22.9 73 +38 +38 очень
душно
1007.8 997.0
12 21.08 ЮЗ 3 18 км 9/0 2000 м
[]
+26.3 +23.5 85 +36 +36 очень
душно
1008.9 998.0 +31.2
15 21.08 З 1 8000 м 10//
[]
+24.2 +24.0 99 +33 +33 очень
душно
1008.2 997.3
18 21.08 штиль 0 6000 м 8/0
[]
+23.9 +23.8 99 +32 +32 очень
душно
1007.1 996.2 6
21 21.08 штиль 0 2600 м 10//
[]
+23.6 +23.5 99 +32 +32 очень
душно
1006.6 995.7
00 22.08 СВ 2 2600 м ?/? +23.3 +23.2 99 +33 +33 очень
душно
1006.9 995.9 +23.2 46
03 22.08 14 км 10// 300 м
[]
+26.3 +23.9 87 1005.9 995.0
06 22.08 18 км 9/9 600 м
[]
+28.2 +23.9 78 1004.6 993.8
09 22.08 З 1 15 км 6/6
[]
+27.6 +20.9 67 +35 +35 очень
душно
1005.4 994.6
12 22.08 З 3 17 км 8/0
[]
+25.2 +21.0 78 +32 +32 очень
душно
1007.4 996.4 +29.6 0.4
15 22.08 18 км н/о +24.2 +20.7 81 +30 +30 очень
душно
1007.4 996.5
18 22.08 Ю 1 19 км 8/0
[]
+23.1 +20.0 83 +30 +30 очень
душно
1007.8 996.8
21 22.08 ЮЗ 1 21 км 10//
[]
+22.5 +19.4 83 +29 +29 очень
душно
1008.3 997.3
00 23.08 З 3 20 км ?/? +23.7 +20.0 80 +29 +29 душно 1009.4 998.4 +22.3 0.0
03 23.08 З 1 21 км 8/0
[]
+26.3 +20.8 72 +33 +45 очень
душно
1008.9 998.0
06 23.08 З 2 23 км 8/0
[]
+28.2 +19.4 59 +34 +41 очень
душно
1007.7 996.9
09 23.08 ЮЗ 2 23 км 8/4 2000 м
[]
+27.1 +19.1 62 +33 +33 очень
душно
1007.6 996.7
12 23.08 З 1 23 км 4/4 1500 м
[]
+24.2 +18.8 72 +29 +29 душно 1009.4 998.5 +29.2
15 23.08 Ю 2 22 км ясно +20.5 +17.6 83 +25 +25 комфорт 1010.5 999.3
18 23.08 Ю 2 23 км 8/0
[]
+20.2 +17.7 86 +24 +24 комфорт 1010.4 999.2
21 23.08 З 1 23 км 10//
[]
+20.3 +17.6 84 +25 +25 комфорт 1010.9 999.7
00 24.08 З 2 17 км 8/0
[]
+23.7 +18.9 74 +28 +30 душно 1011.4 1000.4 +18.8
03 24.08 ЮЗ 2 18 км 10/6 600 м
[]
+24.2 +19.4 75 +29 +33 душно 1011.4 1000.4
06 24.08 ЮЗ 1 19 км ?/? +25.7 +19.1 67 +31 +32 очень
душно
1010.4 999.4
09 24.08 З 1 20 км 9// 2000 м
[]
+24.7 +20.1 76 +30 +31 очень
душно
1010.9 1000.0
12 24.08 Ю 1 17 км 4/0
[]
+22.0 +20.4 91 +28 +28 душно 1012.2 1001.1 +26.5
15 24.08 ЮЗ 1 18 км 3/0
[]
+20.2 +19.1 93 +25 +25 комфорт 1012.2 1001.0
18 24.08 З 1 14 км ясно +18.8 +18.6 99 +21 +21 комфорт 1012.6 1001.4
21 24.08 штиль 0 15 км 9//
[]
+18.5 +18.3 99 +19 +19 1013.3 1002.1
00 25.08 С 1 14 км 1/0
[]
+22.0 +20.0 88 +28 +36 душно 1014.0 1002.9 +18.2
03 25.08 ЮЗ 1 23 км 8/1
[]
+27.9 +16.8 51 +32 +43 душно 1012.9 1002.0
06 25.08 ЮЗ 2 28 км ясно +28.7 +17.2 50 +33 +44 очень
душно
1012.1 1001.3
09 25.08 З 1 20 км 3/0
[]
+27.4 +17.5 55 +32 +32 очень
душно
1011.8 1000.9
12 25.08 Ю 1 18 км 3/0
[]
+22.5 +19.0 81 +28 +28 душно 1013.4 1002.3 +30.1
15 25.08 ЮЗ 2 19 км 3/0
[]
+22.7 +18.6 78 +28 +28 душно 1014.1 1003.0

 

Местоположение метеостанции Санджу (Корея): широта 36.40 долгота 128.15 высота над уровнем моря 100 м.

В архиве по умолчанию представлена погода в Санджу за последнюю неделю. Архивные данные за месяц целиком и за предыдущие месяцы, начиная с января 2011 года, Вы можете получить, выбрав интересующий диапазон дат из раскрывающегося списка и нажав кнопку "Ввод!".


*Определитесь, кто Вы:
робот инопланетянин человек

Внимание! Время в таблицах - всемирное. Для получения местного времени необходимо прибавить поправку, которая равна 9 ч.

Смотрите также архив погоды в соседних городах и на ближайших метеорологических станциях:

Погода на Чупунджнеоне (Корея) (24 км)
Погода в Куми (Корея) (35 км)
Погода в Андоне (Корея) (54 км)
Погода в Чхонджу (Корея) (68 км)
Погода в Тэджоне (Корея) (71 км)
Погода в Тэгу (Корея) (71 км)
Погода в Чинхэгу (Корея) (84 км)
Погода в Йонволе (Корея) (91 км)
Погода в Чхонане (Корея) (101 км)
Погода в Вонджу (Корея) (105 км)

Пояснения к столбцам:

Ветер - указаны скорость ветра в м/с - средняя за 10 мин, порывы в срок и между сроками (в фигурных скобках) и направление, откуда дует ветер: С - северный, СВ - северо-восточный, В - восточный, ЮВ - юго-восточный, Ю - южный, ЮЗ - юго-западный, З - западный, СЗ - северо-западный.
Видимость - горизонтальная дальность видимости в метрах или километрах. При видимости от 1 до 10 км при отсутствии осадков обычно наблюдается дымка, при ухудшении видимости до 1 км и менее - туман. В сухую погоду видимость может ухудшаться дымом, пылью или мглою.
Явления - указаны атмосферные явления, наблюдавшиеся в срок или в последний час перед сроком; фигурными скобками обозначены явления, наблюдавшиеся между сроками (за 1-3 часа до срока); квадратными скобками обозначены град или гололедные отложения с указанием их диаметра в мм.
Облачность - указаны через наклонную черту общая и нижняя облачность в баллах и высота нижней границы облаков в метрах; квадратными скобками обозначены формы облаков: Ci - перистые, Cs - перисто-слоистые, Cc - перисто-кучевые, Ac - высококучевые, As - высокослоистые, Sc - слоисто-кучевые, Ns - слоисто-дождевые, Cu - кучевые, Cb - кучево-дождевые. Подробнее классификацию облаков см. в Атласе облаков (PDF).
T - Температура воздуха - температура, измеренная на высоте 2 м над землей.
Td - Температура точки росы - температура, при понижении до которой содержащийся в воздухе водяной пар достигнет насыщения.
f - Относительная влажность воздуха - влажноcть воздуха, измеренная на высоте 2 м над землей.
Te - Эффективная температура - температура, которую ощущает одетый по сезону человек в тени. Характеристика душности погоды. При расчете учитывается влияние влажности воздуха и скорости ветра на теплоощущения человека.
Tes - Эффективная температура на солнце - температура, которую ощущает человек, с поправкой на солнечный нагрев. Характеристика знойности погоды. Зависит от высоты солнца над горизонтом, облачности и скорости ветра. Ночью, в пасмурную погоду, а также при ветре 12 м/с и более поправка равна нулю.
P - Атмосферное давление - приведенное к уровню моря атмосферное давление.
Po - Атмосферное давление - измеренное на уровне метеостанции атмосферное давление.
Tmin - Минимальная температура - минимум температуры воздуха на высоте 2 м над землей.
Tmax - Максимальная температура - максимум температуры воздуха на высоте 2 м над землей.
R - Количество осадков - Количество выпавших осадков за период времени, мм. При наведении курсора мыши на число - период времени, за который выпало указанное количество осадков.
R24 - Количество осадков - Количество выпавших осадков за 24 часа, мм.
S - Снежный покров - Высота снежного покрова, см. При наведении курсора мыши на число - состояние снежного покрова и степень покрытия местности в баллах.